Vorticity
18 10 6 11 8 13 9 7 2 3 4 8 11 5 9 15 10 12 8 11 10 9 7 5 7 6 11 9 9 5 6 13 17 30 -10 12 5 11 12 8 8 6 13 12
4 5 17 17 11 13 5 5 5 7 8 7 4 5 2 9 9 17 7 6 8 8 6 6 6 8 8 2 4 4 5 8 7 9 6 7 9 9 8 11 13 13 6 5
7 7 7 14 9 6 6 6 5 8 7 5 7 8 11 11 11 9 7 6 6 6 6 7 9 5 4 5 5 6 7 8 10 10 8 7 7 10 12 13 14 9 9 -5
4 1 10 -2 9 7 4 8 6 6 6 7 5 9 10 13 9 11 9 8 7 7 8 8 4 5 5 6 7 9 9 10 9 7 6 8 7 11 10 10 7 7 -4 -9
6 3 6 9 -6 29 7 6 15 16 16 15 13 11 8 9 10 9 7 5 7 8 5 6 6 5 7 7 8 7 10 8 7 7 6 9 15 14 7 17 4 10 10 8
3 3 5 -2 7 19 -1 14 19 15 16 15 17 10 8 8 8 6 6 8 9 5 6 4 6 7 7 8 10 10 8 8 8 6 12 14 12 8 7 8 11 8 9 5
2 7 7 4 2 13 14 13 9 13 13 13 10 6 8 7 5 9 9 6 6 5 5 6 7 8 10 11 9 9 8 8 8 11 12 11 8 6 11 8 8 6 5 3
3 5 9 5 5 13 14 14 11 13 14 12 8 12 12 12 11 7 6 5 5 6 7 9 9 10 9 8 9 9 9 9 9 10 10 9 9 9 9 7 6 5 4 4
8 3 6 3 8 17 14 15 16 13 14 13 13 13 9 7 7 5 5 5 7 8 7 8 7 6 8 10 9 8 9 9 9 11 8 7 9 8 8 5 5 4 5 5
8 3 8 5 13 19 14 11 15 14 13 8 6 5 5 4 5 5 5 7 6 6 6 6 7 9 10 9 9 9 8 9 12 7 7 9 10 8 6 5 4 5 6 5
10 7 10 11 9 12 16 14 8 7 6 5 4 5 4 5 4 5 5 5 6 7 6 6 8 10 9 9 9 8 10 12 5 6 10 11 9 7 5 6 7 7 6 5
5 5 8 8 11 8 9 7 5 3 4 4 4 5 4 4 4 4 4 6 6 4 6 8 10 9 9 9 8 12 10 3 6 10 13 12 8 6 5 5 6 6 8 12
13 -2 5 8 7 4 4 6 4 4 5 4 4 3 3 4 4 5 6 6 6 7 9 9 8 8 8 11 15 3 4 6 11 15 13 9 5 5 5 2 3 10 14 16
8 2 2 5 7 5 5 5 5 4 3 3 4 4 4 5 5 7 6 7 8 8 8 7 8 9 17 8 2 2 6 13 16 12 7 6 6 6 6 5 10 16 19 19
19 14 3 2 4 4 3 3 4 3 4 4 4 5 6 7 7 6 7 9 9 7 7 8 10 18 3 0 1 5 13 15 11 7 6 6 7 6 8 13 17 19 18 24
25 7 6 0 2 5 4 3 3 4 5 5 6 7 6 7 7 9 9 8 7 8 8 12 16 5 -1 -0 4 14 15 10 7 6 6 6 7 8 15 20 14 12 23 20
-12 -6 29 21 7 4 5 6 6 7 7 6 8 7 9 9 9 9 7 7 8 11 11 11 7 1 -3 4 13 14 9 6 5 8 6 10 9 18 21 10 10 24 15 16
16 14 7 2 5 6 7 12 9 9 10 8 8 10 8 8 8 7 7 7 15 12 7 10 1 -3 -2 10 13 9 7 7 7 5 10 11 21 18 5 11 20 14 19 18
4 -0 10 12 8 13 13 10 8 7 7 8 9 10 10 7 6 8 11 11 13 12 11 1 -1 2 9 12 11 9 8 6 8 13 15 23 11 4 16 15 12 22 22 20
11 9 14 17 10 7 6 5 7 7 13 15 10 6 5 8 11 12 9 10 11 13 -0 -2 3 10 12 13 8 6 6 10 15 16 21 4 5 20 11 15 27 29 24 19
11 10 9 10 8 9 9 10 17 16 7 6 9 9 12 12 11 9 7 12 13 1 -4 1 11 17 11 6 7 9 12 18 17 19 1 5 22 7 17 20 29 24 21 14
11 10 13 13 14 17 17 12 8 7 8 12 12 10 10 9 8 9 7 7 7 3 10 15 13 7 7 8 12 15 20 18 13 -0 7 20 8 11 20 17 27 21 17 13
9 5 7 17 12 7 -0 -1 3 16 15 11 10 9 10 10 7 8 4 4 8 14 13 7 7 9 11 14 18 20 15 7 1 12 17 4 9 17 19 15 23 21 13 13
14 9 0 8 3 -6 1 10 13 9 6 7 10 10 8 6 4 5 11 14 11 8 6 8 11 13 16 21 18 9 3 6 16 14 3 7 10 21 16 19 22 19 12 14
3 6 9 6 4 7 12 9 10 12 13 11 6 3 3 7 9 12 11 8 7 8 10 14 17 21 20 10 3 5 14 16 6 3 8 12 16 23 15 21 19 16 12 14
6 6 8 10 12 12 11 11 10 8 9 4 4 9 11 11 9 8 7 7 10 12 19 23 19 8 3 6 11 15 10 1 5 7 11 18 23 20 16 19 18 14 12 13
10 10 10 12 13 12 10 9 9 9 11 12 10 7 7 8 6 7 8 9 15 21 16 7 4 7 7 11 15 7 -1 4 7 13 20 21 21 16 16 18 18 14 13 13
Height
5706 5707 5708 5710 5711 5712 5712 5713 5713 5717 5716 5719 5718 5718 5717 5718 5719 5719 5719 5719 5719 5718 5716 5716 5714 5714 5711 5709 5707 5704 5701 5696 5691 5686 5681 5676 5670 5664 5659 5653 5646 5638 5631 5622
5701 5703 5704 5704 5705 5706 5706 5707 5708 5710 5710 5711 5712 5712 5712 5711 5711 5711 5711 5711 5710 5710 5709 5708 5707 5705 5702 5699 5695 5692 5688 5684 5679 5674 5669 5663 5657 5651 5645 5640 5631 5623 5615 5606
5696 5697 5697 5698 5702 5702 5702 5703 5704 5702 5705 5704 5705 5705 5705 5704 5704 5704 5704 5703 5703 5702 5700 5699 5697 5695 5691 5688 5685 5681 5676 5671 5666 5661 5656 5650 5644 5638 5632 5624 5616 5608 5599 5591
5690 5690 5691 5696 5697 5698 5697 5696 5695 5695 5696 5696 5696 5697 5697 5697 5696 5696 5695 5695 5695 5694 5693 5691 5688 5685 5681 5677 5673 5669 5664 5658 5653 5648 5642 5636 5629 5623 5615 5609 5603 5595 5587 5578
5681 5684 5686 5689 5692 5691 5689 5691 5690 5688 5687 5687 5687 5688 5688 5688 5688 5688 5688 5688 5687 5685 5684 5681 5678 5675 5671 5666 5662 5657 5651 5646 5641 5635 5629 5622 5616 5609 5603 5597 5591 5582 5573 5563
5676 5676 5678 5683 5684 5683 5682 5683 5682 5679 5679 5678 5679 5680 5680 5680 5681 5681 5681 5680 5679 5677 5674 5671 5668 5663 5659 5655 5650 5645 5639 5634 5628 5622 5615 5609 5603 5596 5589 5582 5574 5566 5556 5546
5670 5670 5672 5676 5676 5676 5675 5680 5672 5671 5671 5671 5672 5673 5673 5674 5675 5674 5674 5672 5670 5667 5664 5660 5657 5653 5649 5643 5638 5633 5627 5621 5615 5609 5602 5595 5588 5581 5573 5565 5558 5550 5541 5531
5664 5664 5667 5670 5670 5669 5668 5666 5665 5664 5664 5665 5666 5667 5668 5669 5668 5668 5666 5663 5660 5658 5655 5651 5647 5641 5636 5631 5626 5620 5614 5608 5601 5594 5587 5580 5573 5565 5556 5549 5541 5532 5524 5516
5658 5660 5661 5662 5663 5661 5660 5659 5658 5658 5658 5660 5661 5661 5661 5661 5660 5658 5656 5654 5651 5648 5644 5639 5634 5629 5624 5618 5612 5606 5599 5593 5586 5579 5572 5564 5557 5549 5540 5531 5523 5514 5503 5494
5650 5653 5655 5655 5655 5654 5654 5653 5652 5652 5653 5654 5654 5654 5653 5653 5651 5649 5647 5644 5640 5636 5632 5627 5622 5616 5610 5603 5597 5590 5584 5578 5571 5564 5556 5548 5540 5532 5524 5514 5503 5492 5480 5470
5641 5646 5648 5647 5646 5647 5647 5647 5647 5648 5648 5648 5647 5647 5646 5644 5642 5640 5636 5632 5628 5623 5619 5613 5607 5601 5595 5588 5582 5576 5569 5563 5556 5548 5541 5532 5524 5515 5506 5494 5481 5471 5459 5448
5637 5639 5637 5640 5640 5640 5641 5642 5642 5641 5641 5641 5639 5638 5637 5634 5631 5627 5623 5619 5614 5609 5604 5599 5593 5587 5581 5574 5568 5561 5555 5547 5540 5532 5523 5515 5508 5501 5490 5479 5467 5453 5437 5421
5627 5629 5629 5631 5633 5634 5633 5633 5634 5633 5632 5631 5630 5628 5625 5622 5618 5614 5610 5605 5600 5595 5590 5584 5578 5572 5566 5559 5553 5546 5539 5531 5522 5514 5506 5499 5491 5483 5477 5469 5451 5437 5420 5403
5617 5619 5620 5623 5624 5624 5624 5625 5624 5624 5622 5620 5618 5615 5612 5608 5604 5600 5596 5591 5586 5580 5575 5569 5562 5556 5550 5544 5537 5530 5522 5513 5505 5497 5489 5481 5471 5461 5450 5440 5433 5423 5407 5388
5607 5609 5611 5612 5613 5615 5615 5614 5613 5612 5610 5608 5605 5602 5599 5595 5590 5586 5581 5576 5571 5565 5559 5553 5547 5541 5535 5528 5521 5513 5505 5497 5488 5480 5471 5462 5452 5440 5427 5414 5401 5388 5380 5370
5599 5598 5600 5601 5603 5603 5603 5602 5600 5599 5597 5594 5591 5588 5585 5581 5576 5571 5566 5561 5555 5550 5544 5537 5532 5526 5519 5512 5505 5496 5488 5480 5471 5463 5453 5443 5431 5418 5406 5393 5380 5368 5354 5343
5587 5589 5590 5590 5592 5592 5591 5589 5587 5585 5583 5581 5578 5574 5570 5565 5561 5556 5551 5545 5540 5534 5528 5522 5517 5511 5504 5496 5488 5480 5472 5463 5454 5444 5433 5422 5410 5398 5385 5373 5362 5349 5336 5323
5577 5579 5580 5580 5580 5579 5577 5575 5574 5572 5570 5567 5563 5560 5555 5551 5546 5541 5536 5531 5524 5518 5513 5507 5501 5495 5488 5480 5472 5464 5455 5446 5436 5426 5415 5403 5390 5378 5367 5355 5342 5331 5320 5307
5568 5569 5569 5568 5567 5567 5566 5564 5562 5560 5556 5552 5549 5545 5541 5536 5531 5526 5520 5515 5510 5504 5498 5493 5486 5479 5471 5463 5455 5447 5438 5428 5417 5406 5395 5384 5372 5361 5349 5336 5324 5312 5301 5292
5556 5556 5556 5555 5555 5554 5552 5550 5548 5545 5542 5538 5535 5531 5526 5521 5515 5510 5505 5500 5494 5489 5483 5477 5469 5461 5453 5446 5438 5429 5420 5410 5399 5389 5379 5368 5357 5344 5331 5318 5305 5294 5284 5276
5545 5545 5544 5544 5543 5541 5539 5537 5534 5531 5528 5524 5520 5515 5510 5505 5500 5495 5490 5485 5479 5473 5466 5459 5451 5443 5436 5429 5420 5411 5401 5391 5382 5373 5363 5353 5341 5329 5315 5302 5290 5279 5271 5264
5534 5534 5532 5530 5529 5527 5526 5523 5520 5517 5512 5508 5503 5499 5494 5489 5484 5480 5474 5469 5462 5455 5448 5441 5434 5426 5418 5409 5401 5392 5384 5375 5366 5357 5347 5337 5326 5314 5301 5289 5277 5268 5260 5253
5522 5520 5519 5517 5515 5513 5511 5509 5505 5501 5496 5492 5488 5483 5479 5474 5469 5463 5458 5451 5444 5437 5430 5423 5416 5408 5399 5391 5383 5375 5367 5359 5351 5341 5331 5321 5310 5299 5287 5277 5266 5258 5250 5243
5507 5505 5504 5504 5502 5499 5496 5493 5488 5484 5480 5476 5471 5467 5462 5457 5451 5445 5439 5432 5426 5420 5413 5405 5397 5389 5382 5374 5366 5359 5352 5344 5335 5325 5315 5305 5294 5284 5274 5265 5255 5247 5240 5232
5494 5493 5492 5489 5487 5484 5480 5476 5472 5468 5463 5459 5454 5449 5444 5438 5433 5426 5420 5414 5408 5401 5393 5386 5379 5372 5364 5357 5350 5343 5335 5327 5318 5309 5299 5290 5279 5270 5261 5252 5244 5237 5230 5223
5481 5479 5476 5473 5470 5467 5463 5460 5455 5451 5446 5441 5436 5430 5425 5419 5413 5407 5402 5395 5389 5381 5374 5368 5361 5355 5348 5341 5333 5325 5318 5310 5302 5292 5283 5274 5265 5257 5249 5241 5234 5227 5220 5213
5467 5464 5461 5458 5454 5450 5446 5442 5438 5434 5428 5423 5417 5411 5405 5400 5394 5388 5381 5375 5368 5362 5356 5350 5344 5337 5330 5322 5315 5307 5301 5293 5285 5276 5267 5259 5252 5245 5237 5230 5224 5218 5211 5205